This is the latest recevied weather packets stored in our database for station/object KE5QKR. If no packets are shown the sender has not sent any weather packets the latest 10 day(s).
| Time | Temp. | Humidity | Pressure | Rain* | Wind** | Luminosity | Snow |
|---|---|---|---|---|---|---|---|
| 1777312995 | 30° C | 61% | 1013.9 hPa | 0 mm | - | 793 W/m² | - |
| 1777312692 | 30.56° C | 61% | 1013.8 hPa | 0 mm | - | 793 W/m² | - |
| 1777312388 | 30° C | 62% | 1014 hPa | 0 mm | - | 798 W/m² | - |
| 1777312086 | 30.56° C | 62% | 1014.2 hPa | 0 mm | - | 791 W/m² | - |
| 1777311783 | 30° C | 64% | 1014.2 hPa | 0 mm | - | 797 W/m² | - |
| 1777311480 | 30° C | 62% | 1013.9 hPa | 0 mm | - | 789 W/m² | - |
| 1777311176 | 30° C | 62% | 1013.9 hPa | 0 mm | - | 806 W/m² | - |
| 1777310875 | 30° C | 63% | 1014.1 hPa | 0 mm | - | 801 W/m² | - |
| 1777310573 | 30° C | 65% | 1013.8 hPa | 0 mm | - | 801 W/m² | - |
| 1777310269 | 30° C | 65% | 1014.1 hPa | 0 mm | - | 800 W/m² | - |
| 1777309967 | 30° C | 67% | 1013.9 hPa | 0 mm | - | 597 W/m² | - |
| 1777309664 | 30° C | 68% | 1013.7 hPa | 0 mm | - | 787 W/m² | - |
| 1777309361 | 29.44° C | 68% | 1014.3 hPa | 0 mm | - | 787 W/m² | - |
| 1777309060 | 29.44° C | 67% | 1013.9 hPa | 0 mm | - | 781 W/m² | - |
| 1777308756 | 29.44° C | 68% | 1013.9 hPa | 0 mm | - | 794 W/m² | - |
| 1777308451 | 29.44° C | 70% | 1013.9 hPa | 0 mm | - | 790 W/m² | - |
| 1777308147 | 29.44° C | 70% | 1013.9 hPa | 0 mm | - | 786 W/m² | - |
| 1777307844 | 29.44° C | 69% | 1014.1 hPa | 0 mm | - | 771 W/m² | - |
| 1777307542 | 29.44° C | 72% | 1014 hPa | 0 mm | - | 761 W/m² | - |
| 1777307238 | 29.44° C | 73% | 1014.1 hPa | 0 mm | - | 766 W/m² | - |
| 1777306936 | 29.44° C | 73% | 1014.1 hPa | 0 mm | - | 755 W/m² | - |
| 1777306633 | 28.89° C | 75% | 1014.1 hPa | 0 mm | - | 745 W/m² | - |
| 1777306329 | 28.89° C | 77% | 1014.2 hPa | 0 mm | - | 728 W/m² | - |
| 1777306023 | 28.33° C | 76% | 1014.3 hPa | 0 mm | - | 748 W/m² | - |
| 1777305721 | 28.33° C | 76% | 1014.3 hPa | 0 mm | - | 717 W/m² | - |
* Rain latest hour (hover to see other rain measurements)
** Current wind speed in m/s (hover to see current wind gust speed)